Location: Unspecified
(42.1900°N, 71.3291°W)
Time: 07:22:38
(UTC-04:00)

Cosmos 1674 - Visible Passes

Search period start: 29 May 2017 00:00
Search period end: 08 June 2017 00:00
Orbit: 499 x 522 km, 82.5° (Epoch: 28 May)

Date Brightness Start Highest point End Pass type
(mag) Time Alt. Az. Time Alt. Az. Time Alt. Az.
29 May 3.9 00:59:14 39° NE 00:59:14 39° NE 01:01:58 10° NNE visible
29 May 5.2 02:34:08 11° WNW 02:34:09 11° WNW 02:35:27 10° NW visible
30 May 4.2 00:42:45 32° NE 00:42:45 32° NE 00:45:19 10° NNE visible
30 May 5.0 02:17:40 14° WNW 02:17:40 14° WNW 02:19:38 10° NW visible
31 May 4.4 00:26:16 26° ENE 00:26:16 26° ENE 00:28:37 10° NNE visible
31 May 4.8 02:01:10 17° WNW 02:01:10 17° WNW 02:03:31 10° NNW visible
01 Jun 4.7 00:09:46 22° ENE 00:09:46 22° ENE 00:11:51 10° NE visible
01 Jun 4.6 01:44:40 21° WNW 01:44:40 21° WNW 01:47:17 10° NNW visible
01 Jun 4.9 23:53:15 18° ENE 23:53:15 18° ENE 23:55:01 10° NE visible
02 Jun 4.4 01:28:09 26° WNW 01:28:09 26° WNW 01:30:57 10° NNW visible
02 Jun 5.1 23:36:44 14° ENE 23:36:44 14° ENE 23:38:04 10° NE visible
03 Jun 4.1 01:11:38 32° NW 01:11:38 32° NW 01:14:34 10° N visible
03 Jun 5.2 23:20:11 12° ENE 23:20:11 12° ENE 23:20:54 10° ENE visible
04 Jun 3.8 00:55:05 39° NW 00:55:05 39° NW 00:58:07 10° N visible
05 Jun 3.5 00:38:32 47° NW 00:38:32 47° NW 00:41:38 10° N visible
06 Jun 3.3 00:21:58 56° NNW 00:21:58 56° NNW 00:25:06 10° N visible
07 Jun 3.1 00:05:23 59° NNE 00:05:23 59° NNE 00:08:33 10° N visible
07 Jun 3.2 23:48:47 55° NE 23:48:47 55° NE 23:51:57 10° NNE visible
